Location: Mound City (historical)
(34.0564°N, 117.2656°W)
Time: 01:31:33
(UTC+00:00)

Cosmos 1605 Rocket - Visible Passes

Search period start: 06 December 2024 00:00
Search period end: 16 December 2024 00:00
Orbit: 944 x 1005 km, 82.9° (Epoch: 05 December)

Date Brightness Start Highest point End Pass type
(mag) Time Alt. Az. Time Alt. Az. Time Alt. Az.
06 Dec 4.2 02:34:27 10° N 02:40:49 74° W 02:47:12 10° S visible
07 Dec 4.9 01:15:07 10° NNE 01:20:25 27° ENE 01:25:41 10° SE visible
07 Dec 5.3 02:59:56 10° NNW 03:05:47 39° W 03:11:39 10° SSW visible
08 Dec 4.2 01:39:33 10° N 01:45:44 50° E 01:51:54 10° SSE visible
08 Dec 6.3 03:26:04 10° NW 03:30:35 21° W 03:35:08 10° SW visible
08 Dec 6.7 13:22:41 10° ESE 13:26:05 15° E 13:29:29 10° NE visible
09 Dec 4.0 02:04:29 10° N 02:10:54 88° W 02:17:18 10° S visible
09 Dec 6.0 13:45:35 10° SE 13:50:48 30° E 13:56:06 10° NNE visible
10 Dec 5.0 02:29:50 10° NNW 02:35:54 47° W 02:41:58 10° SSW visible
10 Dec 4.7 14:09:42 10° S 14:15:41 59° E 14:21:47 10° NNE visible
11 Dec 4.4 01:09:44 10° N 01:15:45 41° E 01:21:44 10° SSE visible
11 Dec 6.1 02:55:43 10° NNW 03:00:45 25° W 03:05:47 10° SW visible
11 Dec 6.9 12:53:52 10° ESE 12:56:15 12° E 12:58:38 10° ENE visible
12 Dec 4.0 01:34:32 10° N 01:40:58 78° E 01:47:20 10° S visible
12 Dec 6.9 03:22:55 10° WNW 03:25:26 13° W 03:27:57 10° WSW visible
12 Dec 6.2 13:16:03 10° SE 13:20:55 25° E 13:25:51 10° NNE visible
13 Dec 4.7 01:59:45 10° NNW 02:06:01 57° W 02:12:13 10° SSW visible
13 Dec 5.1 13:39:54 10° SSE 13:45:45 48° E 13:51:43 10° NNE visible
14 Dec 5.9 02:25:27 10° NNW 02:30:53 30° W 02:36:18 10° SW visible
14 Dec 4.0 14:04:36 10° S 14:10:45 89° W 14:17:03 10° N visible
15 Dec 4.1 01:04:37 10° N 01:11:00 65° E 01:17:18 10° SSE visible
15 Dec 6.8 02:52:04 10° NW 02:55:37 16° W 02:59:10 10° WSW visible
15 Dec 6.4 12:46:38 10° SE 12:51:03 21° E 12:55:31 10° NE visible
